TimeEDT,TemperatureF,Dew PointF,Humidity,Sea Level PressureIn,VisibilityMPH,Wind Direction,Wind SpeedMPH,Gust SpeedMPH,PrecipitationIn,Events,Conditions,WindDirDegrees,DateUTC
12:15 AM,35.6,32.5,89,29.96,7.0,Calm,Calm,-,N/A,,Clear,0,2013-04-11 04:15:00
12:35 AM,37.8,35.1,90,29.96,10.0,Calm,Calm,-,N/A,,Clear,0,2013-04-11 04:35:00
12:55 AM,38.1,33.8,84,29.97,10.0,Calm,Calm,-,N/A,,Clear,0,2013-04-11 04:55:00
1:15 AM,36.7,32.2,84,29.97,10.0,WNW,3.5,-,N/A,,Clear,300,2013-04-11 05:15:00
1:35 AM,36.9,29.5,75,29.96,10.0,NNW,10.4,-,N/A,,Clear,340,2013-04-11 05:35:00
1:55 AM,36.7,24.8,62,29.96,10.0,North,15.0,19.6,N/A,,Clear,350,2013-04-11 05:55:00
2:15 AM,36.7,23.5,59,29.96,10.0,North,12.7,18.4,N/A,,Clear,10,2013-04-11 06:15:00
2:35 AM,35.6,22.1,58,29.97,10.0,North,12.7,17.3,N/A,,Clear,360,2013-04-11 06:35:00
2:55 AM,34.3,20.5,57,29.97,10.0,North,11.5,-,N/A,,Clear,360,2013-04-11 06:55:00
3:15 AM,34.2,20.3,57,29.99,10.0,North,8.1,11.5,N/A,,Clear,360,2013-04-11 07:15:00
3:35 AM,34.2,19.6,55,29.99,10.0,North,9.2,-,N/A,,Clear,10,2013-04-11 07:35:00
3:55 AM,34.2,18.5,53,30.00,10.0,North,8.1,-,N/A,,Clear,360,2013-04-11 07:55:00
4:15 AM,34.2,20.3,57,30.02,10.0,North,8.1,-,N/A,,Clear,360,2013-04-11 08:15:00
4:35 AM,34.2,20.5,57,30.02,10.0,North,8.1,-,N/A,,Clear,10,2013-04-11 08:35:00
4:55 AM,34.2,21.2,59,30.03,10.0,North,9.2,-,N/A,,Clear,360,2013-04-11 08:55:00
5:15 AM,34.2,20.8,58,30.05,10.0,North,9.2,16.1,N/A,,Clear,360,2013-04-11 09:15:00
5:35 AM,33.6,20.3,58,30.06,10.0,North,10.4,-,N/A,,Clear,350,2013-04-11 09:35:00
5:55 AM,33.3,19.4,57,30.07,10.0,North,13.8,20.7,N/A,,Clear,360,2013-04-11 09:55:00
6:15 AM,32.0,18.9,58,30.08,10.0,North,9.2,-,N/A,,Clear,360,2013-04-11 10:15:00
6:35 AM,32.0,19.4,60,30.08,10.0,North,9.2,16.1,N/A,,Clear,360,2013-04-11 10:35:00
6:55 AM,32.0,18.7,58,30.08,10.0,North,8.1,-,N/A,,Clear,360,2013-04-11 10:55:00
7:15 AM,32.0,18.5,58,30.09,10.0,North,6.9,-,N/A,,Clear,350,2013-04-11 11:15:00
7:35 AM,34.2,20.3,57,30.10,10.0,North,6.9,-,N/A,,Clear,350,2013-04-11 11:35:00
7:55 AM,34.2,18.7,53,30.11,10.0,North,10.4,17.3,N/A,,Clear,10,2013-04-11 11:55:00
8:15 AM,34.2,18.5,53,30.11,10.0,North,10.4,16.1,N/A,,Clear,360,2013-04-11 12:15:00
8:35 AM,34.2,17.6,51,30.11,10.0,North,10.4,17.3,N/A,,Clear,350,2013-04-11 12:35:00
8:55 AM,36.1,19.2,50,30.12,10.0,North,13.8,-,N/A,,Clear,360,2013-04-11 12:55:00
9:35 AM,35.6,16.7,46,30.13,10.0,North,13.8,20.7,N/A,,Clear,360,2013-04-11 13:35:00
9:55 AM,34.2,16.3,48,30.14,10.0,North,11.5,17.3,N/A,,Clear,350,2013-04-11 13:55:00
10:15 AM,34.2,15.8,47,30.15,10.0,North,10.4,-,N/A,,Clear,360,2013-04-11 14:15:00
10:35 AM,34.2,16.5,49,30.16,10.0,North,11.5,18.4,N/A,,Clear,350,2013-04-11 14:35:00
10:55 AM,35.1,17.8,49,30.16,10.0,North,10.4,-,N/A,,Clear,350,2013-04-11 14:55:00
11:15 AM,34.2,17.8,51,30.17,10.0,North,9.2,18.4,N/A,,Clear,10,2013-04-11 15:15:00
11:35 AM,34.2,17.6,51,30.17,10.0,NNW,9.2,18.4,N/A,,Clear,340,2013-04-11 15:35:00
11:55 AM,34.3,17.8,51,30.17,10.0,NNE,11.5,-,N/A,,Clear,20,2013-04-11 15:55:00
12:15 PM,34.2,16.7,49,30.17,10.0,NNW,8.1,16.1,N/A,,Clear,340,2013-04-11 16:15:00
12:35 PM,35.2,17.6,49,30.19,10.0,NNW,8.1,-,N/A,,Clear,340,2013-04-11 16:35:00
12:55 PM,35.6,18.1,49,30.19,10.0,North,5.8,-,N/A,,Clear,350,2013-04-11 16:55:00
1:15 PM,35.1,17.4,49,30.19,10.0,North,8.1,-,N/A,,Clear,360,2013-04-11 17:15:00
1:35 PM,35.4,17.6,48,30.19,10.0,North,8.1,-,N/A,,Clear,10,2013-04-11 17:35:00
1:55 PM,36.7,17.4,46,30.19,10.0,North,8.1,16.1,N/A,,Clear,350,2013-04-11 17:55:00
2:15 PM,36.7,16.9,45,30.19,10.0,North,10.4,-,N/A,,Clear,360,2013-04-11 18:15:00
2:35 PM,36.7,16.7,44,30.18,10.0,North,10.4,16.1,N/A,,Clear,350,2013-04-11 18:35:00
2:55 PM,36.7,16.0,43,30.17,10.0,NNW,8.1,-,N/A,,Clear,330,2013-04-11 18:55:00
3:15 PM,36.7,14.4,40,30.16,10.0,North,8.1,-,N/A,,Clear,350,2013-04-11 19:15:00
3:35 PM,36.7,15.8,43,30.17,10.0,NNW,9.2,-,N/A,,Clear,340,2013-04-11 19:35:00
3:55 PM,36.7,15.1,41,30.16,10.0,North,11.5,16.1,N/A,,Clear,350,2013-04-11 19:55:00
4:15 PM,39.2,17.6,42,30.16,10.0,North,13.8,19.6,N/A,,Clear,350,2013-04-11 20:15:00
4:35 PM,37.4,17.2,44,30.17,10.0,North,8.1,17.3,N/A,,Clear,350,2013-04-11 20:35:00
4:55 PM,37.0,16.9,44,30.17,10.0,North,12.7,18.4,N/A,,Clear,350,2013-04-11 20:55:00
5:15 PM,36.7,17.1,45,30.17,10.0,North,8.1,18.4,N/A,,Clear,360,2013-04-11 21:15:00
5:35 PM,36.7,17.8,46,30.17,10.0,North,9.2,-,N/A,,Clear,360,2013-04-11 21:35:00
5:55 PM,36.7,15.8,43,30.17,10.0,North,10.4,16.1,N/A,,Clear,10,2013-04-11 21:55:00
6:15 PM,36.7,15.4,42,30.17,10.0,North,11.5,-,N/A,,Clear,10,2013-04-11 22:15:00
6:35 PM,36.7,15.6,42,30.17,10.0,NNE,10.4,-,N/A,,Clear,30,2013-04-11 22:35:00
6:55 PM,36.5,15.3,42,30.18,10.0,NNE,10.4,-,N/A,,Clear,20,2013-04-11 22:55:00
7:15 PM,35.4,13.8,41,30.18,10.0,North,9.2,-,N/A,,Scattered Clouds,10,2013-04-11 23:15:00
7:35 PM,34.7,13.6,42,30.17,10.0,North,10.4,-,N/A,,Scattered Clouds,10,2013-04-11 23:35:00
7:55 PM,34.2,12.2,40,30.19,10.0,North,9.2,-,N/A,,Scattered Clouds,10,2013-04-11 23:55:00
8:15 PM,34.2,12.7,41,30.20,10.0,North,8.1,-,N/A,,Clear,10,2013-04-12 00:15:00
8:35 PM,34.2,13.3,42,30.20,10.0,NNE,9.2,-,N/A,,Clear,20,2013-04-12 00:35:00
8:55 PM,34.2,13.8,43,30.20,10.0,North,8.1,-,N/A,,Clear,10,2013-04-12 00:55:00
9:15 PM,34.2,14.4,44,30.20,10.0,NNE,8.1,-,N/A,,Clear,20,2013-04-12 01:15:00
9:35 PM,34.2,14.2,44,30.21,10.0,NNE,5.8,-,N/A,,Clear,30,2013-04-12 01:35:00
9:55 PM,34.2,14.7,45,30.21,10.0,NE,5.8,-,N/A,,Clear,40,2013-04-12 01:55:00
10:15 PM,34.2,14.7,45,30.21,10.0,NE,6.9,-,N/A,,Clear,40,2013-04-12 02:15:00
10:35 PM,34.2,15.3,46,30.21,10.0,NE,5.8,-,N/A,,Clear,40,2013-04-12 02:35:00
10:55 PM,32.4,14.4,48,30.21,10.0,NE,6.9,-,N/A,,Clear,40,2013-04-12 02:55:00
11:15 PM,32.0,14.0,48,30.22,10.0,NE,4.6,-,N/A,,Clear,50,2013-04-12 03:15:00
11:35 PM,32.0,14.5,49,30.23,10.0,ENE,4.6,-,N/A,,Clear,60,2013-04-12 03:35:00
11:55 PM,32.4,15.6,50,30.23,10.0,ENE,6.9,-,N/A,,Scattered Clouds,60,2013-04-12 03:55:00